Home > Weather > Alice Springs > Past weeks

Flag for Australia Weather for the Past 2 Weeks in Alice Springs, Northern Territory, Australia

Now
90 °F

Sunny.


Feels Like: 86 °F
Forecast: 64 / 98 °F
Wind: 9 mph from Southeast

Location: Alice Springs Aerodrome

Current Time: Feb 10, 2016 at 10:14:53 AM

Latest Report: Feb 10, 2016 at 9:30 AM


Visibility: 10 mi

Pressure: 29.98 "Hg (28.09 "Hg at 581m altitude)

Humidity: 16%

Dew point: 37 °F

Location of Alice SpringsLocation

Historic Weather in Alice Springs — Graph

°F

Alice Springs Temperature Yesterday

Maximum temperature yesterday: 99 °F (at 2:00 PM)
Minimum temperature yesterday: 70 °F (at 5:00 AM)
Average temperature yesterday: 85 °F

High & Low Weather Summary for the Past Weeks

 TemperatureHumidityPressure
High104 °F (Jan 27, 2:30 PM)78% (Feb 3, 1:30 AM)30.04 "Hg (Feb 3, 1:30 AM)
Low59 °F (Feb 5, 5:30 AM)9% (Feb 5, 3:30 PM)29.59 "Hg (Feb 1, 5:00 PM)
Average83 °F35%29.86 "Hg
* Reported Jan 26 8:30 AM — Feb 10 8:30 AM, Alice Springs, Weather by CustomWeather, © 2016

Note: Actual official high and low records may vary slightly from our data, if they occured in-between our weather recording intervals... More about our weather records

Advertising

Alice Springs Weather History for the Previous 24 Hours

 ConditionsComfort  
Time TempWeatherWind HumidityBarometerVisibility
8:30 AM
Wed, Feb 10
84 °FSunny.3 mph23%29.98 "Hg10 mi
7:30 AM75 °FSunny.6 mph36%29.95 "Hg10 mi
6:30 AM66 °FSunny.6 mph52%29.92 "Hg10 mi
6:00 AM68 °FSunny.7 mph49%29.92 "Hg10 mi
5:30 AM68 °FClear.7 mph49%29.92 "HgN/A
4:30 AM68 °FClear.8 mph49%29.92 "HgN/A
4:00 AM70 °FClear.7 mph46%29.92 "HgN/A
3:30 AM68 °FClear.6 mph53%29.92 "HgN/A
3:00 AM70 °FClear.No wind50%29.92 "HgN/A
2:30 AM72 °FClear.No wind47%29.89 "HgN/A
2:00 AM73 °FClear.No wind47%29.92 "HgN/A
1:30 AM73 °FClear.5 mph44%29.92 "HgN/A
12:30 AM75 °FPassing clouds.3 mph44%29.92 "HgN/A
11:30 PM
Tue, Feb 9
79 °FClear.7 mph42%29.95 "HgN/A
11:00 PM81 °FClear.No wind37%29.95 "HgN/A
10:30 PM82 °FClear.5 mph37%29.95 "HgN/A
10:00 PM84 °FClear.5 mph33%29.95 "HgN/A
9:30 PM86 °FClear.7 mph29%29.92 "HgN/A
8:30 PM90 °FClear.10 mph22%29.92 "HgN/A
7:30 PM90 °FClear.14 mph24%29.92 "HgN/A
7:00 PM90 °FClear.18 mph24%29.89 "HgN/A
6:30 PM93 °FSunny.16 mph20%29.89 "HgN/A
5:30 PM95 °FScattered clouds.18 mph18%29.89 "HgN/A
4:30 PM97 °FScattered clouds.16 mph14%29.86 "HgN/A
4:00 PM97 °FScattered clouds.17 mph13%29.89 "HgN/A
3:30 PM97 °FScattered clouds.14 mph16%29.89 "HgN/A
2:30 PM97 °FPartly sunny.10 mph18%29.92 "HgN/A
2:00 PM99 °FPartly sunny.17 mph14%29.92 "HgN/A
1:30 PM95 °FScattered clouds.14 mph15%29.92 "HgN/A
1:00 PM97 °FSunny.16 mph13%29.95 "Hg10 mi
12:30 PM97 °FSunny.12 mph14%29.95 "Hg10 mi
12:00 PM95 °FSunny.15 mph15%29.98 "Hg10 mi
11:30 AM93 °FSunny.17 mph16%29.98 "Hg10 mi
11:00 AM91 °FSunny.10 mph17%29.98 "Hg10 mi
10:30 AM91 °FSunny.13 mph18%29.98 "Hg10 mi
10:00 AM91 °FSunny.12 mph17%30.01 "Hg10 mi
Weather by CustomWeather, © 2016

See weather overviewHow to use our weather pages